[Date Prev][Date Next][Thread Prev][Thread Next] - [Date Index][Thread Index][Author Index]

2 Line ISS Keps 10-28



ISS
1 25544U 98067A   03301.15292824  .00024270  00000-0  26762-3 0  7113
2 25544  51.6303  69.9832 0006825  83.5290 292.0656 15.62935558281780


----
Via the sarex mailing list at AMSAT.ORG courtesy of AMSAT-NA.
To unsubscribe, send "unsubscribe sarex" to Majordomo@amsat.org



AMSAT Top AMSAT Home